Zurück zum Katalog

SL-14 DEB

AktivPO
NORAD 45280·DEBRIS·🇷🇺 Russia

Gestartet Aug 15, 1991 von Plesetsk Cosmodrome

Loading…

Nächste Überflüge (nächste 24 Stunden)

TLE

AktuellSource: Space-Track

Epoche: Sep 13, 2026, 23:23 UTC

1 45280U 91056S   26256.97487690  .00000866  00000-0  20565-2 0  9991
2 45280  82.5844  80.4582 0015119 103.7208 256.5601 13.22068225316845

Verfolge SL-14 DEB in Echtzeit mit AllMySat

Download on the App Store